Retour au catalogue

STARLINK-34286

ActifCommunicationsVLEO
NORAD 65035·PAYLOAD·🇺🇸 United States

Lancé Jul 30, 2025 depuis Cape Canaveral Space Force Station

Loading…

Prochains Passages (prochaines 24 heures)

TLE

FraisSource: CelesTrak SupGP

Époque: Sep 14, 2026, 23:08 UTC

1 65035C 25161W   26257.96437500 -.00051416  00000+0 -15191-2 0  2574
2 65035  53.1577 131.3609 0001319  85.7872 163.0831 15.34415662    13

Suivez STARLINK-34286 en temps réel avec AllMySat

Download on the App Store